THOR ABLESTAR DEB, 706

Orbit data source: Space-Track

THOR ABLESTAR DEB, 706 is space debris in LEO originally from a launch on Thu, 05 Dec 1963 UTC launched from the Air Force Western Test Range (AFWTR). Debris objects in space refer to the collection of defunct objects orbiting the Earth. Examples of debris include non-operational satellites, rocket bodies, and fragments generated from explosions, collisions, or faulty payload assembly.

Loading next visibility...
Identifier
706, 1963-049D
Orbit
LEO
Country
Flag of USUS
Related business
Manufacturer
Unknown
Mission
Spacecraft
Bus & Motor
Unknown
Mass
Unknown
Launch date (UTC)
1963-12-05 (63 years ago)
Launch vehicle
Unknown
Launch site
Air Force Western Test Range (AFWTR)
Object type
Payload
Rocket body
Debris
Shape & HBR
Unknown shape, 0.1 m
Radar Cross Section
Medium (>0.1 m² and <1 m²)

Expand to show TLE details & history
Last TLE update: 19 hours ago

TLE from 19 hours ago
0 THOR ABLESTAR DEB
1 00706U 63049D   26236.01052836  .00000217  00000-0  29258-3 0  9998
2 00706  89.9117  72.4530 0025185 218.5056 296.0161 13.56644598 92501
Epoch: 2026-08-24T00:15Z
TLE epoch observation values (Epoch: 2026-08-24T00:15:09.650Z)
Latitude
25.76757°
Longitude
-83.67798°
Altitude
1,042.934 km
Speed
7.337 km/s
True Right ascension
16h 49m 38s
True Declination
25° 38' 18"
Sunlit
Object was in daylight at epoch
Visualization orbit readout
Latitude
Unknown
Longitude
Unknown
Altitude
Unknown
Speed
Unknown
Apparent Right ascension
Unknown
Apparent Declination
Unknown
Sunlit
N/A
Visualization observer readout
Local Sidereal Time
10:26:20
Azimuth
Unknown
Elevation
Unknown
Doppler factor
Unknown
Orbital elements
Apogee altitude
1,063.647 km
Perigee altitude
1,026.257 km
Semi-major axis
7,423.089 km
Eccentricity
0.00252
Inclination
89.9117°
RAAN
72.453°
Arg. of periapsis
218.5056°
True anomaly
295.75639°
Mean anomaly
296.0161°
Eccentric anomaly
295.88628°
Mean motion
3.39364 °/min
Orbital period
106.08 mins
BSTAR
0.00029258
Loading maneuver chart data...
Computing Atmospheric mass density...
Loading historical data...
Loading historical data...
Loading historical data...
Loading historical data...
Loading historical data...
Loading historical data...
Loading historical data...

Documentation

Showing up to 5 results
|